Wainwright, AK

1:08 AM AKST on February 06, 2016 (GMT -0900)
Wainwright

Weather History for PAWI - February, 2013

Change the Weather History Date:

Saturday, February 2, 2013

  Actual Average (PABR) Record (PABR)
Temperature  
Mean Temperature -18 °F -14 °F  
Max Temperature -8 °F -8 °F 26 °F (1994)
Min Temperature -27 °F -20 °F -50 °F (1995)
Degree Days  
Heating Degree Days 82 79  
Month to date heating degree days 158  
Since 1 July heating degree days 10794  
Cooling Degree Days 0    
Month to date cooling degree days  
Year to date cooling degree days  
Moisture  
Dew Point -22 °F    
Average Humidity 74    
Maximum Humidity 79    
Minimum Humidity 69    
Precipitation  
Precipitation 0.00 in 0.01 in 0.09 in (1929)
Month to date precipitation 0.01  
Year to date precipitation 0.14  
Snow  
Snow 0.00 in 0.10 in 2.50 in (1929)
Month to date snowfall 0.2  
Since 1 July snowfall 26.6  
Snow Depth -    
Sea Level Pressure  
Sea Level Pressure 30.15 in    
Wind  
Wind Speed 19 mph (NE)    
Max Wind Speed 28 mph    
Max Gust Speed 33 mph    
Visibility 2 miles    
Events      
T = Trace of Precipitation, MM = Missing Value Source: NWS Daily Summary

Daily Weather History Graph

Daily Weather History Graph

Search for Another Location

Airport or City:

Trip Planner

Search our weather history database for the weather conditions in past years. The results will help you decide how hot, cold, wet, or windy it might be!

Date:

Astronomy

Feb. 02, 2013 Rise Set
Actual Time 11:26 AM AKST 4:22 PM AKST
Civil Twilight 9:58 AM AKST 5:50 PM AKST
Nautical Twilight 8:38 AM AKST 7:10 PM AKST
Astronomical Twilight 7:25 AM AKST 8:23 PM AKST
Moon 3:31 AM AKST (2/2) 9:43 AM AKST (2/2)
Length of Visible Light 7h 51m
Length of Day
4h 55m
Waning Gibbous, 58% of the Moon is Illuminated
Feb 2
Waning Gibbous
Feb 3
Last Quarter
Feb 9
New
Feb 17
First Quarter
Feb 25
Full

Hourly Weather History & Observations

Time (AKST) Temp. Windchill Dew Point Humidity Pressure Visibility Wind Dir Wind Speed Gust Speed Precip Events Conditions
12:53 AM -27.0 °F -54.0 °F -33.0 °F 73% 30.37 in 6.0 mi NE 15.0 mph - N/A   Haze
1:11 AM -27.4 °F -54.5 °F -32.8 °F 75% 30.36 in 6.0 mi ENE 15.0 mph - N/A   Haze
1:53 AM -26.0 °F -54.3 °F -33.0 °F 69% 30.35 in 5.0 mi ENE 17.3 mph - N/A   Haze
2:53 AM -25.1 °F -52.3 °F -32.1 °F 70% 30.33 in 8.0 mi ENE 16.1 mph - N/A   Clear
3:53 AM -25.1 °F -53.1 °F -32.1 °F 70% 30.31 in 7.0 mi ENE 17.3 mph - N/A   Clear
4:53 AM -25.1 °F -52.3 °F -32.1 °F 70% 30.28 in 5.0 mi ENE 16.1 mph - N/A   Haze
5:18 AM -25.6 °F -53.8 °F -31.0 °F 76% 30.26 in 5.0 mi ENE 17.3 mph - N/A   Haze
5:53 AM -24.0 °F -52.5 °F -29.9 °F 74% 30.26 in 4.0 mi NE 18.4 mph - N/A   Haze
6:15 AM -22.0 °F -50.6 °F -29.2 °F 69% 30.24 in 2.5 mi ENE 19.6 mph - N/A   Haze
6:53 AM -20.0 °F -49.3 °F -27.0 °F 70% 30.23 in 1.8 mi ENE 21.9 mph - N/A   Haze
7:22 AM -20.2 °F -49.5 °F -25.6 °F 76% 30.21 in 1.2 mi NE 21.9 mph - N/A   Haze
7:39 AM -18.4 °F -48.3 °F -25.6 °F 70% 30.20 in 1.0 mi ENE 24.2 mph - N/A   Haze
7:53 AM -18.0 °F -47.8 °F -25.1 °F 70% 30.20 in 1.0 mi NE 24.2 mph - N/A   Haze
8:53 AM -17.0 °F -42.6 °F -23.1 °F 74% 30.20 in 1.2 mi NE 17.3 mph - N/A   Haze
9:11 AM -16.6 °F -42.9 °F -22.0 °F 76% 30.19 in 1.2 mi ENE 18.4 mph - N/A   Haze
9:53 AM -16.1 °F -39.9 °F -22.0 °F 74% 30.19 in 2.0 mi NE 15.0 mph - N/A   Haze
10:25 AM -16.6 °F -43.5 °F -22.0 °F 76% 30.16 in 1.8 mi NE 19.6 mph - N/A   Haze
10:53 AM -15.0 °F -40.7 °F -20.9 °F 75% 30.16 in 0.8 mi NE 18.4 mph - N/A   Haze
11:53 AM -16.1 °F -44.6 °F -22.0 °F 74% 30.14 in 0.8 mi NE 23.0 mph - N/A   Haze
12:05 PM -16.6 °F -44.8 °F -22.0 °F 76% 30.13 in 0.5 mi ENE 21.9 mph - N/A   Haze
12:53 PM -14.1 °F -41.4 °F -20.9 °F 71% 30.12 in 0.5 mi NE 21.9 mph 28.8 mph N/A   Haze
1:53 PM -13.0 °F -42.1 °F -18.9 °F 75% 30.09 in 0.2 mi ENE 26.5 mph 32.2 mph N/A   Haze
2:10 PM -13.0 °F -41.6 °F -18.4 °F 77% 30.08 in 0.2 mi ENE 25.3 mph 31.1 mph N/A   Haze
2:53 PM -11.9 °F -39.6 °F -18.0 °F 74% 30.06 in 0.2 mi NE 24.2 mph 32.2 mph N/A   Haze
3:53 PM -11.0 °F -39.0 °F -17.0 °F 75% 30.06 in 0.2 mi ENE 25.3 mph 32.2 mph N/A   Haze
4:10 PM -11.2 °F -40.1 °F -16.6 °F 77% 30.05 in 0.2 mi ENE 27.6 mph 33.4 mph N/A   Haze
4:53 PM -9.9 °F -37.0 °F -16.1 °F 74% 30.05 in 0.5 mi ENE 24.2 mph - N/A   Haze
5:53 PM -9.9 °F -37.0 °F -16.1 °F 74% 30.04 in 0.5 mi ENE 24.2 mph 33.4 mph N/A   Haze
6:53 PM -9.9 °F -36.5 °F -16.1 °F 74% 30.02 in 0.8 mi ENE 23.0 mph - N/A   Haze
7:53 PM -9.0 °F -35.3 °F -15.0 °F 75% 30.01 in 0.8 mi ENE 23.0 mph - N/A   Haze
8:30 PM -9.4 °F -36.3 °F -14.8 °F 77% 30.00 in 1.0 mi ENE 24.2 mph - N/A   Haze
8:53 PM -9.0 °F -34.8 °F -15.0 °F 75% 30.01 in 1.0 mi ENE 21.9 mph - N/A   Haze
9:51 PM -9.4 °F -36.8 °F -14.8 °F 77% 29.99 in 0.8 mi NE 25.3 mph - N/A   Haze
9:53 PM -9.0 °F -35.8 °F -14.1 °F 79% 30.00 in 0.8 mi ENE 24.2 mph - N/A   Haze
10:53 PM -8.0 °F -33.9 °F -14.1 °F 75% 29.99 in 1.0 mi NE 23.0 mph 32.2 mph N/A   Haze
11:53 PM -8.0 °F -33.3 °F -14.1 °F 75% 29.99 in 1.0 mi NE 21.9 mph 29.9 mph N/A   Haze